SCP
-0 -0 0 0 0 0 -0 -0 -0 0 -0 -0 -0 -0 0 -0 -0 0 0 0 0 0 0 0 -0 0 0 0 0 -0 0 -0 -0 -0 -0 -0 -0 -0 -0 -0 -0 -0 -0 0 0 0 0 0 0
-0 -0 0 -0 0 0 0 -0 0 -0 -0 -0 -0 0 -0 -0 -0 0 0 0 0 0 0 0 -0 0 0 0 -0 -0 0 0 0 -0 -0 -0 -0 -0 -0 -0 0 -0 0 0 0 0 0 0 0
-0 -0 0 -0 0 -0 0 0 -0 -0 0 -0 -0 0 -0 0 -0 0 0 0 0 -0 0 -0 0 0 0 0 0 0 0 0 0 0 0 0 0 -0 -0 -0 -0 0 0 0 0 0 0 0 0
0 0 0 1 0 -0 -0 -0 -0 -0 -0 -0 -0 -0 -0 -0 -0 0 0 0 0 0 0 0 0 0 0 0 0 0 0 0 0 0 0 0 0 -0 -0 0 0 -0 0 0 0 0 0 0 0
-0 0 1 0 -0 -0 -0 -0 -0 0 -0 -0 -0 -0 -0 -0 -0 -0 0 0 0 0 0 0 0 0 0 0 0 0 0 0 0 0 0 0 0 -0 -0 0 0 0 -0 -0 0 0 0 0 0
0 0 0 0 0 -0 -0 -0 0 -0 -0 -0 -0 -0 -0 -0 -0 0 -0 -0 0 0 0 0 0 0 0 0 0 0 0 0 0 0 0 -0 -0 -0 0 0 0 0 -0 0 0 0 0 0 0
0 0 0 0 0 0 -0 -0 -0 -0 -0 -0 -0 -0 -0 -0 -0 -0 0 -0 -0 -0 0 0 0 0 0 0 0 0 0 0 -0 0 0 0 0 0 -0 0 0 0 -0 0 0 0 0 0 -0
-0 0 -0 0 0 0 -0 -0 -0 -0 -0 -0 -0 -0 -0 0 -0 -0 -0 0 -0 -0 0 0 0 0 0 0 0 -0 -0 -0 0 0 0 0 0 0 -0 -0 0 0 0 0 -0 -0 -0 -0 -0
-0 -0 0 0 -0 -0 -0 -0 -0 -0 -0 -0 -0 -0 -0 -0 -0 -0 -0 -0 -0 0 0 0 0 0 0 -0 -0 -0 -0 0 0 0 0 0 0 0 0 0 0 0 0 0 0 -0 0 0 -0
-0 0 0 -0 0 0 0 0 -0 -0 -0 -0 -0 -0 -0 0 0 -0 -0 -0 -0 -0 0 0 0 0 0 0 -0 -0 -0 0 0 0 0 0 0 0 0 0 0 0 -0 -0 0 0 0 0 0
-0 -0 -0 -0 0 -0 0 0 -0 -0 -0 -0 -0 -0 -0 0 0 -0 -0 -0 -0 0 0 0 -0 0 0 -0 -0 -0 0 -0 -0 -0 0 0 -0 -0 -0 -0 0 0 0 0 0 0 -0 0 0
0 -0 -0 -0 -0 0 -0 0 -0 -0 -0 -0 -0 -0 -0 -0 0 0 -0 -0 -0 -0 -0 -0 -0 -0 -0 0 -0 0 0 -0 0 0 0 -0 -0 0 -0 -0 -0 0 0 0 0 0 0 0 0
-0 -0 -0 0 0 0 0 0 -0 0 -0 -0 -0 -0 -0 -0 -0 0 -0 -0 -0 0 -0 -0 -0 0 -0 -0 -0 -0 -0 -0 -0 0 0 -0 -0 -0 -0 -0 -0 -0 -0 -0 0 0 -0 -0 -0
-0 -0 -0 0 -0 0 -0 0 -0 -0 -0 -0 -0 -0 -0 -0 -0 -0 0 -0 -0 -0 -0 -0 -0 0 -0 -0 -0 -0 0 -0 0 -0 0 -0 -0 -0 -0 -0 -0 0 -0 0 0 -0 0 0 -0
-0 -0 0 0 0 0 -0 0 0 -0 -0 -0 -0 -0 -0 -0 -0 -0 -0 0 0 0 -0 -0 -0 -0 -0 0 -0 -0 0 -0 0 -0 0 -0 -0 -0 -0 0 -0 -0 0 0 0 0 0 0 0
-0 -0 -0 -0 -0 0 0 0 0 -0 -0 -0 -0 -0 -0 -0 -0 -0 -0 -0 -0 -0 -0 -0 -0 -0 -0 -0 0 0 0 -0 -0 -0 0 0 -0 0 -0 0 -0 -0 0 0 0 0 0 0 0
-0 -0 -0 0 -0 -0 -0 0 0 0 -0 -0 -0 -0 -0 -0 -0 -0 -0 -0 -0 -0 -0 -0 -0 -0 -1 -0 -0 -0 0 0 -0 0 0 -0 -0 -0 -0 0 0 0 0 0 0 0 0 0 0
0 0 -0 0 0 0 0 0 0 -0 -0 -0 -0 -0 -0 -0 -0 -0 -0 -0 -0 -0 -0 -0 -0 0 -1 -0 -0 0 0 -0 0 -0 -0 -0 -0 0 0 -0 0 0 0 0 0 0 0 0 0
-0 0 -0 0 0 0 0 0 -0 0 -0 -0 -0 -0 -0 -0 -0 -0 -0 -0 -0 -0 -0 -1 -0 -0 -0 -0 -0 -0 -0 0 0 0 -0 -0 0 0 0 0 0 0 0 0 0 0 0 0 0
-0 -0 0 0 -0 0 0 -0 -0 0 -0 -0 -0 -0 -0 -0 -0 -0 -0 -0 -0 -0 -1 -1 -0 -0 -0 0 0 -0 -0 -0 -0 0 0 0 0 0 0 0 0 0 0 0 0 0 0 0 0
-0 -0 -0 0 -0 -0 -0 -0 -0 0 0 0 -0 -0 -0 -0 -0 -0 -0 -0 -0 -1 -1 -1 -1 -0 -0 -0 -0 -0 -0 -0 0 0 0 0 1 0 1 0 0 0 0 0 0 0 0 0 0
-0 -0 0 0 0 0 -0 -0 0 0 0 -0 -0 0 -0 -0 -0 -0 -0 -0 -0 -0 -1 -1 -1 -0 -0 -0 0 -0 0 0 0 0 0 1 0 0 0 0 0 0 0 0 0 0 0 0 0
-0 -0 -0 0 -0 0 0 0 0 0 0 0 -0 -0 -0 -0 -0 -0 -0 -0 -0 -0 -0 -0 -1 -0 -0 -0 0 0 0 0 -0 0 1 0 1 0 0 0 0 0 0 1 0 0 0 -0 0
-0 0 0 0 0 0 0 0 0 0 0 0 0 -0 -0 -0 -0 -0 -0 -0 -0 0 -0 -0 -1 -0 -0 -0 0 0 0 -0 -0 0 0 0 0 0 0 0 0 0 0 0 0 0 0 0 -0
-0 0 0 0 0 0 0 0 0 0 0 0 0 0 -0 -0 0 -0 -0 -0 -0 -0 -0 0 -1 -0 0 0 0 0 -0 0 -0 -1 0 0 -0 0 0 0 1 0 0 1 1 1 0 0 0
0 -0 0 0 0 0 0 0 0 0 0 0 -0 0 -0 -0 0 0 -0 -0 -1 -1 -1 -1 -2 0 0 -0 0 0 0 -0 -0 -0 -0 0 -0 -0 -0 0 0 1 1 1 1 1 0 0 0
0 0 -0 0 0 0 0 0 -0 0 0 0 -0 0 0 -0 0 0 -0 -0 -0 -1 -1 -1 -2 -2 -1 -0 1 0 0 0 -0 -0 -0 0 -0 0 -0 0 1 0 1 1 1 0 0 1 1
-0 0 0 0 0 0 0 0 0 0 0 0 0 0 0 -0 0 0 0 -0 -0 -1 -1 -1 -2 -3 -1 -1 0 1 0 0 0 -0 -0 -0 0 0 -0 0 1 1 1 1 0 0 0 1 1
0 0 -0 0 0 0 0 0 0 0 0 0 0 0 0 0 0 0 0 -0 0 0 -1 -1 -1 -1 -1 -1 -0 0 0 -0 -1 -0 -0 -0 0 1 -0 0 1 1 1 1 1 0 0 1 1
0 0 -0 0 0 0 0 0 0 0 0 0 0 0 0 0 0 0 0 0 -0 -0 -1 -1 -1 -1 -1 -1 -0 -0 -0 -1 -1 -1 -0 1 1 1 1 1 1 1 1 1 1 0 0 1 1
Wind_Speed_500mb
30 20 33 20 6 6 5 15 33 23 27 30 33 25 21 7 5 23 35 42 43 43 49 48 52 51 50 51 51 53 51 46 40 36 33 31 29 28 26 26 26 26 24 24 26 27 26 25 25
31 30 42 35 8 10 10 33 35 10 39 64 50 31 39 42 58 52 49 48 44 45 41 46 46 45 46 48 47 47 45 40 35 32 29 26 26 23 24 23 25 23 21 23 24 24 23 23 24
28 38 16 14 7 7 12 21 31 39 28 22 34 35 29 50 47 45 54 55 49 45 36 42 42 42 43 43 42 42 40 37 32 28 23 21 20 20 21 21 20 19 20 22 22 22 21 22 22
16 41 40 26 32 17 28 26 28 32 45 43 53 40 60 47 56 60 58 50 45 38 36 39 41 42 42 41 38 37 36 34 29 23 18 17 17 17 18 16 18 18 18 20 22 22 20 21 23
30 18 17 8 33 32 23 50 41 17 54 59 61 50 57 54 58 55 49 42 41 36 37 37 39 39 39 38 38 37 34 30 24 20 19 17 14 14 14 16 16 14 17 19 20 22 20 20 22
32 32 30 7 17 24 21 34 29 43 50 60 58 47 50 61 63 51 44 42 37 36 34 37 38 36 36 34 35 34 31 26 23 22 18 14 13 12 13 14 13 14 17 19 19 20 20 18 21
35 26 29 17 19 19 21 7 35 36 42 47 58 35 55 53 52 44 44 41 42 38 30 35 37 36 35 35 33 30 28 26 22 17 13 9 12 14 16 16 19 19 17 17 18 19 19 17 21
34 25 42 6 26 25 16 31 14 28 48 48 51 32 42 56 57 49 51 53 48 42 26 29 31 34 35 35 32 29 27 23 17 12 9 12 12 10 19 18 24 24 21 21 23 18 18 20 24
39 4 27 18 28 31 22 25 28 40 35 41 23 53 57 50 51 51 68 54 41 35 34 30 26 27 25 34 32 24 21 18 12 9 12 9 5 8 4 20 25 24 27 21 26 24 22 18 20
20 13 12 35 9 25 24 29 33 26 32 20 56 57 56 53 51 58 54 43 44 40 34 32 35 29 24 23 25 20 14 11 7 5 5 8 13 8 10 18 19 15 23 23 19 12 7 9 19
32 12 32 67 38 34 25 38 25 44 25 31 67 59 56 54 48 47 50 45 38 40 42 38 31 31 28 36 11 7 6 0 3 1 6 2 11 5 13 10 18 21 17 16 17 13 20 24 21
24 38 62 36 23 21 25 41 26 31 37 44 50 56 58 54 50 46 49 44 52 40 44 44 44 37 31 36 8 13 18 4 16 15 9 16 4 2 10 11 16 14 15 14 14 28 16 15 16
33 52 49 14 23 20 21 32 36 19 47 44 50 57 58 54 49 45 43 44 42 40 33 53 42 36 42 26 20 23 22 19 13 18 18 13 6 12 17 17 16 16 6 11 12 13 16 17 14
41 24 29 9 21 16 33 34 32 34 37 48 51 58 56 54 52 49 45 47 48 41 39 42 39 37 49 44 28 29 27 14 24 14 23 21 15 18 14 15 20 12 12 13 20 21 18 10 10
51 36 14 18 23 20 26 34 25 46 36 47 49 55 55 53 52 52 48 48 47 46 45 44 38 39 39 46 35 39 22 22 16 19 12 15 25 25 30 24 20 12 18 16 23 15 7 11 19
43 37 26 39 31 25 31 16 28 51 43 45 49 53 56 54 53 51 50 49 49 47 48 45 38 39 34 36 33 32 20 24 29 21 21 22 28 23 26 17 9 14 16 18 29 12 10 18 13
44 34 38 19 27 31 31 19 20 37 41 50 49 52 55 54 54 53 52 52 52 50 51 50 44 43 43 32 33 25 29 32 28 25 22 25 20 26 24 10 19 15 18 24 17 6 8 7 10
42 41 35 33 33 35 29 27 25 60 47 50 51 53 54 56 57 57 54 53 52 52 53 51 49 43 47 36 29 31 29 31 29 28 29 29 23 20 25 10 21 28 28 10 10 3 15 17 7
47 39 47 25 15 34 37 37 42 71 59 48 53 53 56 57 57 57 55 56 54 55 57 58 55 53 41 43 42 41 42 39 36 26 23 20 26 25 28 28 22 14 8 10 6 17 9 8 3
55 54 48 30 48 49 33 54 57 56 46 50 54 55 55 57 59 60 61 59 60 60 61 61 63 59 62 48 43 30 22 22 25 20 29 33 25 21 21 14 7 5 3 9 18 22 6 7 8
55 53 45 32 40 43 36 37 41 44 48 50 50 61 58 60 62 67 65 64 64 67 66 67 65 64 60 53 41 42 36 30 17 23 26 26 22 25 21 24 17 15 18 12 11 8 6 1 3
52 53 53 43 33 23 33 25 25 33 44 41 53 53 66 65 66 66 71 70 68 69 70 67 64 61 62 55 47 37 38 27 24 23 25 32 16 9 22 17 18 20 15 13 7 4 8 7 6
51 52 51 49 41 32 44 15 31 42 37 49 43 57 56 69 67 68 75 74 70 67 71 69 65 62 61 58 60 45 40 30 29 25 33 21 23 27 25 24 24 22 22 17 17 17 14 8 4
51 49 51 45 38 30 40 27 42 40 47 44 48 61 63 58 70 71 70 75 79 74 73 76 74 70 61 61 60 57 43 45 33 31 33 35 42 32 35 24 33 22 27 17 11 9 9 20 18
56 49 31 35 33 34 45 46 30 37 46 42 21 52 67 65 64 73 75 78 86 85 81 78 82 77 70 67 63 60 56 48 48 40 41 28 27 28 28 39 36 26 29 22 18 11 15 8 18
51 50 33 41 35 39 46 42 30 48 44 39 70 110 77 72 65 70 78 79 84 90 86 82 83 82 75 68 73 61 65 59 60 51 40 43 36 36 34 34 29 29 27 37 25 20 17 8 9
53 50 53 52 46 35 36 46 46 37 37 48 64 28 39 78 74 74 76 81 77 87 93 93 84 82 80 72 72 73 64 76 67 65 51 39 41 36 47 43 43 37 35 32 26 27 24 30 19
58 38 47 40 52 50 42 42 23 39 40 44 37 54 44 59 68 71 70 76 78 78 88 91 91 86 85 80 73 77 74 71 75 65 61 58 46 43 45 52 53 46 41 39 34 31 29 19 16
40 46 48 43 40 35 35 32 31 32 48 43 40 56 63 48 55 71 76 76 80 75 80 89 90 89 87 85 79 79 79 77 72 72 69 67 62 58 49 55 55 48 46 44 40 35 29 26 20
56 56 55 33 44 37 36 31 26 27 28 40 34 44 48 43 51 60 74 77 83 87 83 88 87 91 93 90 83 82 82 81 82 81 79 77 72 70 73 71 66 58 53 49 46 38 46 38 28
Wind_Direction_500mb
196 158 123 82 325 187 169 111 94 112 104 124 90 54 108 98 100 105 131 123 125 126 129 132 132 135 135 135 132 133 133 135 128 118 111 106 98 93 89 82 76 67 60 53 48 48 46 49 54
195 163 176 111 266 29 90 88 115 164 114 108 110 141 101 87 104 121 127 131 126 124 129 132 136 136 136 131 132 133 137 134 127 121 114 104 92 91 83 75 65 62 60 53 44 42 47 47 55
181 197 211 189 154 138 101 172 101 110 120 77 107 137 92 115 112 121 132 132 132 130 146 137 138 141 136 132 135 138 135 134 131 126 119 103 95 88 78 68 58 60 53 44 42 37 42 52 52
190 242 251 263 129 201 118 102 118 99 99 102 99 87 107 108 120 129 134 134 133 136 149 137 134 137 139 137 138 140 143 139 131 128 120 112 97 88 74 60 48 49 40 37 39 39 38 47 53
213 242 252 348 93 116 119 83 56 100 95 100 107 98 107 121 129 132 136 137 127 142 149 143 139 139 141 142 142 144 142 140 135 131 130 116 103 86 67 44 37 37 31 33 38 45 43 37 49
234 254 280 82 82 104 100 138 151 102 104 115 114 101 121 129 132 137 143 140 144 141 148 149 147 149 145 146 144 145 147 145 144 141 133 120 103 77 55 39 33 29 29 30 36 46 43 39 39
249 278 287 105 117 110 86 120 129 107 128 120 121 126 133 136 138 141 144 143 142 142 151 153 154 154 150 146 147 150 150 150 148 146 141 112 65 41 28 27 35 22 22 23 28 39 44 48 42
289 291 301 153 146 121 134 90 98 127 122 130 128 135 142 153 152 145 150 143 134 151 148 143 154 155 155 155 154 155 156 155 154 156 128 75 55 13 18 21 4 9 13 24 27 37 38 57 50
223 285 289 323 110 119 163 112 98 106 123 149 117 148 147 150 151 149 148 141 145 143 150 153 153 158 161 171 169 166 167 171 173 167 105 102 136 11 6 354 4 11 24 30 35 54 49 37 38
81 329 310 255 70 128 160 142 115 126 138 148 136 141 145 156 156 146 142 145 149 162 165 157 164 156 165 171 176 183 182 186 201 115 89 113 323 17 312 338 356 8 23 18 29 48 69 37 4
150 203 287 287 145 160 160 129 141 138 166 145 133 144 155 160 162 164 151 157 165 163 167 168 177 164 153 190 206 165 98 195 352 325 254 286 264 245 311 331 321 352 23 6 341 332 347 30 326
139 188 236 250 149 165 170 135 143 155 161 153 147 157 161 165 168 170 163 159 164 173 181 177 168 165 189 194 206 158 206 204 234 252 272 221 260 320 296 307 336 2 324 335 327 335 1 330 334
208 189 237 178 148 173 203 146 132 136 138 149 150 161 167 170 173 174 172 165 172 175 183 175 171 180 180 180 198 207 209 197 202 249 290 315 235 274 287 276 272 294 290 319 343 287 281 315 299
249 246 253 196 220 197 187 141 136 140 145 149 157 169 174 176 177 176 179 172 175 178 181 184 193 202 195 187 191 206 185 215 207 230 264 275 276 229 264 280 281 305 314 274 286 294 285 351 332
268 267 233 247 248 177 234 144 165 145 158 155 165 174 178 182 182 182 183 178 182 185 187 194 195 211 209 198 213 200 197 219 220 213 259 259 272 260 236 255 276 292 289 292 303 331 353 345 322
261 251 246 228 200 169 203 153 162 152 169 167 171 178 180 186 186 185 187 186 189 190 193 194 195 206 212 206 213 215 198 224 219 234 255 258 255 278 279 272 306 289 283 296 296 311 352 352 297
245 241 235 193 201 159 201 124 306 167 180 172 178 181 184 187 190 189 190 190 193 195 196 198 199 204 217 222 209 214 211 236 239 217 243 264 256 277 279 252 287 246 255 281 289 277 328 280 301
235 232 235 207 195 191 172 136 222 250 181 184 182 183 188 190 195 190 195 195 195 196 200 202 200 200 220 223 216 209 216 228 239 243 259 242 257 263 264 229 260 273 280 273 302 318 286 321 347
245 238 230 203 58 207 158 156 174 240 222 192 183 189 190 195 195 195 196 196 197 199 200 205 201 202 201 201 208 212 219 233 234 219 246 243 250 272 252 252 241 297 267 250 284 280 287 351 339
244 254 243 190 173 226 194 177 175 203 189 191 188 188 196 194 195 196 194 200 198 200 204 208 207 206 210 209 215 226 217 240 251 234 227 250 262 243 257 256 245 261 271 243 292 317 209 156 279
234 244 250 249 195 195 207 207 201 177 184 194 200 190 196 198 198 191 196 199 200 201 205 210 212 207 213 208 219 214 219 218 202 229 230 274 264 254 226 241 209 191 211 259 284 14 28 93 332
227 232 250 255 243 184 251 226 200 214 185 191 190 206 194 196 200 201 195 198 204 203 205 212 216 214 218 207 208 211 221 205 236 226 260 244 238 182 229 214 205 224 177 226 295 209 188 136 86
228 230 238 254 249 176 195 251 264 209 188 187 193 200 208 196 199 204 199 200 202 205 202 205 216 216 217 214 203 204 209 213 211 223 221 211 219 220 209 206 212 219 184 216 216 225 187 136 182
228 238 245 245 253 220 223 207 253 187 181 251 189 201 201 206 196 200 204 199 199 204 203 204 211 218 220 215 211 204 210 209 213 208 228 234 239 217 202 202 213 211 174 220 226 230 197 190 197
231 226 231 235 235 242 212 196 211 191 200 213 227 278 200 200 198 192 197 198 195 198 202 202 207 216 221 214 217 209 203 211 208 205 221 225 209 230 209 202 224 212 185 208 204 212 183 223 184
217 227 227 228 229 235 237 247 203 201 195 178 186 216 195 192 194 193 197 199 198 197 199 201 207 213 218 218 214 215 209 212 211 209 211 218 210 223 237 230 231 217 198 207 204 184 179 192 256
214 224 230 239 240 247 238 223 234 182 217 192 206 242 220 181 189 192 197 198 199 198 199 200 205 213 218 221 217 217 216 213 214 213 202 212 207 216 225 232 241 228 221 211 208 200 176 183 217
227 219 221 233 239 241 239 251 226 191 140 228 188 201 230 187 190 188 195 197 198 199 201 202 204 213 218 221 223 218 222 218 218 216 215 215 210 211 229 234 239 234 217 220 219 200 199 203 198
210 228 236 229 239 246 245 244 236 194 181 191 198 202 228 224 190 188 191 196 196 198 199 201 205 209 216 222 223 221 223 225 221 218 217 224 216 211 226 235 241 238 225 221 215 204 212 235 222
222 212 230 238 224 237 256 246 235 236 225 188 202 215 219 223 226 200 189 189 190 193 197 199 201 203 215 219 221 221 223 226 228 223 223 225 230 222 222 231 239 240 232 225 218 204 208 237 241
Wind_Speed_850mb
30 20 33 20 6 6 5 15 33 23 27 30 33 25 21 7 5 23 35 42 43 43 49 48 52 51 50 51 51 53 51 46 40 36 33 31 29 28 26 26 26 26 24 24 26 27 26 25 25
31 30 42 35 8 10 10 33 35 10 39 64 50 31 39 42 58 52 49 48 44 45 41 46 46 45 46 48 47 47 45 40 35 32 29 26 26 23 24 23 25 23 21 23 24 24 23 23 24
28 38 16 14 7 7 12 21 31 39 28 22 34 35 29 50 47 45 54 55 49 45 36 42 42 42 43 43 42 42 40 37 32 28 23 21 20 20 21 21 20 19 20 22 22 22 21 22 22
16 41 40 26 32 17 28 26 28 32 45 43 53 40 60 47 56 60 58 50 45 38 36 39 41 42 42 41 38 37 36 34 29 23 18 17 17 17 18 16 18 18 18 20 22 22 20 21 23
30 18 17 8 33 32 23 50 41 17 54 59 61 50 57 54 58 55 49 42 41 36 37 37 39 39 39 38 38 37 34 30 24 20 19 17 14 14 14 16 16 14 17 19 20 22 20 20 22
32 32 30 7 17 24 21 34 29 43 50 60 58 47 50 61 63 51 44 42 37 36 34 37 38 36 36 34 35 34 31 26 23 22 18 14 13 12 13 14 13 14 17 19 19 20 20 18 21
35 26 29 17 19 19 21 7 35 36 42 47 58 35 55 53 52 44 44 41 42 38 30 35 37 36 35 35 33 30 28 26 22 17 13 9 12 14 16 16 19 19 17 17 18 19 19 17 21
34 25 42 6 26 25 16 31 14 28 48 48 51 32 42 56 57 49 51 53 48 42 26 29 31 34 35 35 32 29 27 23 17 12 9 12 12 10 19 18 24 24 21 21 23 18 18 20 24
39 4 27 18 28 31 22 25 28 40 35 41 23 53 57 50 51 51 68 54 41 35 34 30 26 27 25 34 32 24 21 18 12 9 12 9 5 8 4 20 25 24 27 21 26 24 22 18 20
20 13 12 35 9 25 24 29 33 26 32 20 56 57 56 53 51 58 54 43 44 40 34 32 35 29 24 23 25 20 14 11 7 5 5 8 13 8 10 18 19 15 23 23 19 12 7 9 19
32 12 32 67 38 34 25 38 25 44 25 31 67 59 56 54 48 47 50 45 38 40 42 38 31 31 28 36 11 7 6 0 3 1 6 2 11 5 13 10 18 21 17 16 17 13 20 24 21
24 38 62 36 23 21 25 41 26 31 37 44 50 56 58 54 50 46 49 44 52 40 44 44 44 37 31 36 8 13 18 4 16 15 9 16 4 2 10 11 16 14 15 14 14 28 16 15 16
33 52 49 14 23 20 21 32 36 19 47 44 50 57 58 54 49 45 43 44 42 40 33 53 42 36 42 26 20 23 22 19 13 18 18 13 6 12 17 17 16 16 6 11 12 13 16 17 14
41 24 29 9 21 16 33 34 32 34 37 48 51 58 56 54 52 49 45 47 48 41 39 42 39 37 49 44 28 29 27 14 24 14 23 21 15 18 14 15 20 12 12 13 20 21 18 10 10
51 36 14 18 23 20 26 34 25 46 36 47 49 55 55 53 52 52 48 48 47 46 45 44 38 39 39 46 35 39 22 22 16 19 12 15 25 25 30 24 20 12 18 16 23 15 7 11 19
43 37 26 39 31 25 31 16 28 51 43 45 49 53 56 54 53 51 50 49 49 47 48 45 38 39 34 36 33 32 20 24 29 21 21 22 28 23 26 17 9 14 16 18 29 12 10 18 13
44 34 38 19 27 31 31 19 20 37 41 50 49 52 55 54 54 53 52 52 52 50 51 50 44 43 43 32 33 25 29 32 28 25 22 25 20 26 24 10 19 15 18 24 17 6 8 7 10
42 41 35 33 33 35 29 27 25 60 47 50 51 53 54 56 57 57 54 53 52 52 53 51 49 43 47 36 29 31 29 31 29 28 29 29 23 20 25 10 21 28 28 10 10 3 15 17 7
47 39 47 25 15 34 37 37 42 71 59 48 53 53 56 57 57 57 55 56 54 55 57 58 55 53 41 43 42 41 42 39 36 26 23 20 26 25 28 28 22 14 8 10 6 17 9 8 3
55 54 48 30 48 49 33 54 57 56 46 50 54 55 55 57 59 60 61 59 60 60 61 61 63 59 62 48 43 30 22 22 25 20 29 33 25 21 21 14 7 5 3 9 18 22 6 7 8
55 53 45 32 40 43 36 37 41 44 48 50 50 61 58 60 62 67 65 64 64 67 66 67 65 64 60 53 41 42 36 30 17 23 26 26 22 25 21 24 17 15 18 12 11 8 6 1 3
52 53 53 43 33 23 33 25 25 33 44 41 53 53 66 65 66 66 71 70 68 69 70 67 64 61 62 55 47 37 38 27 24 23 25 32 16 9 22 17 18 20 15 13 7 4 8 7 6
51 52 51 49 41 32 44 15 31 42 37 49 43 57 56 69 67 68 75 74 70 67 71 69 65 62 61 58 60 45 40 30 29 25 33 21 23 27 25 24 24 22 22 17 17 17 14 8 4
51 49 51 45 38 30 40 27 42 40 47 44 48 61 63 58 70 71 70 75 79 74 73 76 74 70 61 61 60 57 43 45 33 31 33 35 42 32 35 24 33 22 27 17 11 9 9 20 18
56 49 31 35 33 34 45 46 30 37 46 42 21 52 67 65 64 73 75 78 86 85 81 78 82 77 70 67 63 60 56 48 48 40 41 28 27 28 28 39 36 26 29 22 18 11 15 8 18
51 50 33 41 35 39 46 42 30 48 44 39 70 110 77 72 65 70 78 79 84 90 86 82 83 82 75 68 73 61 65 59 60 51 40 43 36 36 34 34 29 29 27 37 25 20 17 8 9
53 50 53 52 46 35 36 46 46 37 37 48 64 28 39 78 74 74 76 81 77 87 93 93 84 82 80 72 72 73 64 76 67 65 51 39 41 36 47 43 43 37 35 32 26 27 24 30 19
58 38 47 40 52 50 42 42 23 39 40 44 37 54 44 59 68 71 70 76 78 78 88 91 91 86 85 80 73 77 74 71 75 65 61 58 46 43 45 52 53 46 41 39 34 31 29 19 16
40 46 48 43 40 35 35 32 31 32 48 43 40 56 63 48 55 71 76 76 80 75 80 89 90 89 87 85 79 79 79 77 72 72 69 67 62 58 49 55 55 48 46 44 40 35 29 26 20
56 56 55 33 44 37 36 31 26 27 28 40 34 44 48 43 51 60 74 77 83 87 83 88 87 91 93 90 83 82 82 81 82 81 79 77 72 70 73 71 66 58 53 49 46 38 46 38 28
Wind_Direction_850mb
196 158 123 82 325 187 169 111 94 112 104 124 90 54 108 98 100 105 131 123 125 126 129 132 132 135 135 135 132 133 133 135 128 118 111 106 98 93 89 82 76 67 60 53 48 48 46 49 54
195 163 176 111 266 29 90 88 115 164 114 108 110 141 101 87 104 121 127 131 126 124 129 132 136 136 136 131 132 133 137 134 127 121 114 104 92 91 83 75 65 62 60 53 44 42 47 47 55
181 197 211 189 154 138 101 172 101 110 120 77 107 137 92 115 112 121 132 132 132 130 146 137 138 141 136 132 135 138 135 134 131 126 119 103 95 88 78 68 58 60 53 44 42 37 42 52 52
190 242 251 263 129 201 118 102 118 99 99 102 99 87 107 108 120 129 134 134 133 136 149 137 134 137 139 137 138 140 143 139 131 128 120 112 97 88 74 60 48 49 40 37 39 39 38 47 53
213 242 252 348 93 116 119 83 56 100 95 100 107 98 107 121 129 132 136 137 127 142 149 143 139 139 141 142 142 144 142 140 135 131 130 116 103 86 67 44 37 37 31 33 38 45 43 37 49
234 254 280 82 82 104 100 138 151 102 104 115 114 101 121 129 132 137 143 140 144 141 148 149 147 149 145 146 144 145 147 145 144 141 133 120 103 77 55 39 33 29 29 30 36 46 43 39 39
249 278 287 105 117 110 86 120 129 107 128 120 121 126 133 136 138 141 144 143 142 142 151 153 154 154 150 146 147 150 150 150 148 146 141 112 65 41 28 27 35 22 22 23 28 39 44 48 42
289 291 301 153 146 121 134 90 98 127 122 130 128 135 142 153 152 145 150 143 134 151 148 143 154 155 155 155 154 155 156 155 154 156 128 75 55 13 18 21 4 9 13 24 27 37 38 57 50
223 285 289 323 110 119 163 112 98 106 123 149 117 148 147 150 151 149 148 141 145 143 150 153 153 158 161 171 169 166 167 171 173 167 105 102 136 11 6 354 4 11 24 30 35 54 49 37 38
81 329 310 255 70 128 160 142 115 126 138 148 136 141 145 156 156 146 142 145 149 162 165 157 164 156 165 171 176 183 182 186 201 115 89 113 323 17 312 338 356 8 23 18 29 48 69 37 4
150 203 287 287 145 160 160 129 141 138 166 145 133 144 155 160 162 164 151 157 165 163 167 168 177 164 153 190 206 165 98 195 352 325 254 286 264 245 311 331 321 352 23 6 341 332 347 30 326
139 188 236 250 149 165 170 135 143 155 161 153 147 157 161 165 168 170 163 159 164 173 181 177 168 165 189 194 206 158 206 204 234 252 272 221 260 320 296 307 336 2 324 335 327 335 1 330 334
208 189 237 178 148 173 203 146 132 136 138 149 150 161 167 170 173 174 172 165 172 175 183 175 171 180 180 180 198 207 209 197 202 249 290 315 235 274 287 276 272 294 290 319 343 287 281 315 299
249 246 253 196 220 197 187 141 136 140 145 149 157 169 174 176 177 176 179 172 175 178 181 184 193 202 195 187 191 206 185 215 207 230 264 275 276 229 264 280 281 305 314 274 286 294 285 351 332
268 267 233 247 248 177 234 144 165 145 158 155 165 174 178 182 182 182 183 178 182 185 187 194 195 211 209 198 213 200 197 219 220 213 259 259 272 260 236 255 276 292 289 292 303 331 353 345 322
261 251 246 228 200 169 203 153 162 152 169 167 171 178 180 186 186 185 187 186 189 190 193 194 195 206 212 206 213 215 198 224 219 234 255 258 255 278 279 272 306 289 283 296 296 311 352 352 297
245 241 235 193 201 159 201 124 306 167 180 172 178 181 184 187 190 189 190 190 193 195 196 198 199 204 217 222 209 214 211 236 239 217 243 264 256 277 279 252 287 246 255 281 289 277 328 280 301
235 232 235 207 195 191 172 136 222 250 181 184 182 183 188 190 195 190 195 195 195 196 200 202 200 200 220 223 216 209 216 228 239 243 259 242 257 263 264 229 260 273 280 273 302 318 286 321 347
245 238 230 203 58 207 158 156 174 240 222 192 183 189 190 195 195 195 196 196 197 199 200 205 201 202 201 201 208 212 219 233 234 219 246 243 250 272 252 252 241 297 267 250 284 280 287 351 339
244 254 243 190 173 226 194 177 175 203 189 191 188 188 196 194 195 196 194 200 198 200 204 208 207 206 210 209 215 226 217 240 251 234 227 250 262 243 257 256 245 261 271 243 292 317 209 156 279
234 244 250 249 195 195 207 207 201 177 184 194 200 190 196 198 198 191 196 199 200 201 205 210 212 207 213 208 219 214 219 218 202 229 230 274 264 254 226 241 209 191 211 259 284 14 28 93 332
227 232 250 255 243 184 251 226 200 214 185 191 190 206 194 196 200 201 195 198 204 203 205 212 216 214 218 207 208 211 221 205 236 226 260 244 238 182 229 214 205 224 177 226 295 209 188 136 86
228 230 238 254 249 176 195 251 264 209 188 187 193 200 208 196 199 204 199 200 202 205 202 205 216 216 217 214 203 204 209 213 211 223 221 211 219 220 209 206 212 219 184 216 216 225 187 136 182
228 238 245 245 253 220 223 207 253 187 181 251 189 201 201 206 196 200 204 199 199 204 203 204 211 218 220 215 211 204 210 209 213 208 228 234 239 217 202 202 213 211 174 220 226 230 197 190 197
231 226 231 235 235 242 212 196 211 191 200 213 227 278 200 200 198 192 197 198 195 198 202 202 207 216 221 214 217 209 203 211 208 205 221 225 209 230 209 202 224 212 185 208 204 212 183 223 184
217 227 227 228 229 235 237 247 203 201 195 178 186 216 195 192 194 193 197 199 198 197 199 201 207 213 218 218 214 215 209 212 211 209 211 218 210 223 237 230 231 217 198 207 204 184 179 192 256
214 224 230 239 240 247 238 223 234 182 217 192 206 242 220 181 189 192 197 198 199 198 199 200 205 213 218 221 217 217 216 213 214 213 202 212 207 216 225 232 241 228 221 211 208 200 176 183 217
227 219 221 233 239 241 239 251 226 191 140 228 188 201 230 187 190 188 195 197 198 199 201 202 204 213 218 221 223 218 222 218 218 216 215 215 210 211 229 234 239 234 217 220 219 200 199 203 198
210 228 236 229 239 246 245 244 236 194 181 191 198 202 228 224 190 188 191 196 196 198 199 201 205 209 216 222 223 221 223 225 221 218 217 224 216 211 226 235 241 238 225 221 215 204 212 235 222
222 212 230 238 224 237 256 246 235 236 225 188 202 215 219 223 226 200 189 189 190 193 197 199 201 203 215 219 221 221 223 226 228 223 223 225 230 222 222 231 239 240 232 225 218 204 208 237 241